{"data":{"norad_id":40053,"intl_designator":"2014-034A","name":"SPOT 7","alt_names":[],"object_type":"PAYLOAD","status":"ACTIVE","operator":null,"country":"AZER","launch_date":"2014-06-30","launch_site_code":"SRILR","launch_vehicle":null,"mission":null,"orbit_class":"UNKNOWN","rcs_meters":3.6769,"size_class":null,"mass_kg":null,"dimensions":null,"purposes":["earth_obs"],"wikipedia_slug":null,"has_3d_model":false,"image_url":null,"decayed_at":null,"tle_current":{"epoch":"2026-09-20T04:09:57.288672Z","epoch_age_seconds":42690,"freshness":"FRESH","line1":"1 40053U 14034A   26263.17357973  .00000250  00000+0  60151-4 0  9998","line2":"2 40053  98.0532 323.1729 0001167  79.9347 280.1986 14.61023780651000","mean_motion":14.6102378,"eccentricity":0.0001167,"inclination_deg":98.0532,"raan_deg":323.1729,"arg_perigee_deg":79.9347,"mean_anomaly_deg":280.1986,"bstar":6.0151e-5,"rev_number":65100,"period_min":98.561024105987,"perigee_km":689.04539007259,"apogee_km":690.69506295926,"semimajor_km":7068.0072265159,"source":"CELESTRAK","updated_at":"2026-09-20T09:00:33.897722Z"}}}